User: anonymous   Login
Location: Walnut Point State Park
(39.6958°N, 88.0345°W)
Time: 11:58:36
(UTC-05:00)
Language:

Iridium 75 - Orbit

View from above orbital plane
View from above orbital plane
View from above satellite
View from above satellite

Ground track
Ground track

The orbit data is extracted from the following two-line orbital elements,

1 25346U 98032E   16240.41410735  .00000011  00000-0 -31191-5 0  9993
2 25346  86.4006 346.9241 0002155  96.6120 305.9825 14.34220674957569
Epoch (UTC): 27 August 2016 09:56:18
Eccentricity: 0.0002155
inclination: 86.4006°
perigee height: 776 km
apogee height: 779 km
right ascension of ascending node: 346.9241°
argument of perigee: 96.6120°
revolutions per day: 14.34220674
mean anomaly at epoch: 305.9825°
orbit number at epoch: 95756

The dashed part of the orbit path shows where the satellite is in the earth's shadow,  

DLR